Location: St. Louis
(38.6270°N, 90.1994°W)
Time: 12:33:42
(UTC-06:00)

deb Explorer IX - Pass Details

Date: 08 December 2021
Orbit: 544 x 1082 km, 38.8° (Epoch: 16 January)

Event Time Altitude Azimuth Distance (km) Brightness Sun altitude
Rises 10:54:01 0° 273° (W) 3,116 ? 27.1°
Reaches altitude 10° 10:56:35 10° 274° (W) 2,110 ? 27.2°
Maximum altitude 11:01:25 89° 0° (N) 616 ? 27.4°
Drops below altitude 10° 11:05:42 10° 95° (E) 1,868 ? 27.6°
Sets 11:07:51 0° 95° (E) 2,729 ? 27.7°
